Weather History for Ironwood, MI

Change the Weather History Date:

Saturday, October 22, 2011

  Actual Average Record
Temperature  
Mean Temperature 40 °F -  
Max Temperature 50 °F 48 °F 69 °F (2000)
Min Temperature 30 °F 34 °F 23 °F (1998)
Degree Days  
Heating Degree Days 25    
Moisture  
Dew Point 33 °F    
Average Humidity 74    
Maximum Humidity 100    
Minimum Humidity 47    
Precipitation  
Precipitation 0.00 in - - ()
Sea Level Pressure  
Sea Level Pressure 30.00 in    
Wind  
Wind Speed 7 mph (WNW)    
Max Wind Speed 10 mph    
Max Gust Speed -    
Visibility 10 miles    
Events      
Averages and records for this station are not official NWS values.
T = Trace of Precipitation, MM = Missing Value Source: NWS Daily Summary

Daily Weather History Graph

Daily Weather History Graph

Search for Another Location

Airport:

Trip Planner

Search our weather history database for the weather conditions in past years. The results will help you decide how hot, cold, wet, or windy it might be!

Date:

Astronomy

Oct. 22, 2011 Rise Set
Actual Time 7:27 AM CDT 6:01 PM CDT
Civil Twilight 6:56 AM CDT 6:32 PM CDT
Nautical Twilight 6:21 AM CDT 7:07 PM CDT
Astronomical Twilight 5:46 AM CDT 7:42 PM CDT
Moon 2:08 AM CDT (10/22) 3:33 PM CDT (10/22)
Length of Visible Light 11h 35m
Length of Day
10h 34m
Waning Crescent, 23% of the Moon is Illuminated
Oct 22
Waning Crescent
Oct 26
New
Nov 2
First Quarter
Nov 10
Full
Nov 18
Last Quarter

Hourly Weather History & Observations

Time (CDT) Temp. Windchill Dew Point Humidity Pressure Visibility Wind Dir Wind Speed Gust Speed Precip Events Conditions
12:35 AM 42.8 °F 37.5 °F 30.2 °F 61% 29.93 in 10.0 mi WSW 9.2 mph - N/A   Clear
12:55 AM 42.8 °F 38.0 °F 30.2 °F 61% 29.93 in 10.0 mi West 8.1 mph - N/A   Clear
1:15 AM 44.6 °F 40.7 °F 30.2 °F 57% 29.93 in 10.0 mi West 6.9 mph - N/A   Clear
1:35 AM 42.8 °F 38.0 °F 30.2 °F 61% 29.93 in 10.0 mi WSW 8.1 mph - N/A   Clear
2:15 AM 41.0 °F 35.8 °F 30.2 °F 65% 29.94 in 10.0 mi WSW 8.1 mph - N/A   Clear
2:35 AM 39.2 °F 33.6 °F 30.2 °F 70% 29.94 in 10.0 mi WSW 8.1 mph - N/A   Clear
2:55 AM 39.2 °F 33.6 °F 32.0 °F 75% 29.94 in 10.0 mi WSW 8.1 mph - N/A   Clear
3:15 AM 37.4 °F 31.4 °F 30.2 °F 75% 29.94 in 10.0 mi WSW 8.1 mph - N/A   Clear
3:35 AM 37.4 °F 30.8 °F 30.2 °F 75% 29.94 in 10.0 mi WSW 9.2 mph - N/A   Clear
3:55 AM 37.4 °F 31.4 °F 32.0 °F 81% 29.95 in 10.0 mi WSW 8.1 mph - N/A   Clear
4:15 AM 37.4 °F 32.1 °F 30.2 °F 75% 29.95 in 10.0 mi WSW 6.9 mph - N/A   Clear
4:35 AM 37.4 °F 32.1 °F 30.2 °F 75% 29.96 in 10.0 mi WSW 6.9 mph - N/A   Clear
4:55 AM 35.6 °F 31.7 °F 32.0 °F 87% 29.97 in 10.0 mi WSW 4.6 mph - N/A   Clear
5:15 AM 35.6 °F 30.7 °F 30.2 °F 81% 29.97 in 10.0 mi WSW 5.8 mph - N/A   Clear
5:35 AM 35.6 °F 32.8 °F 30.2 °F 81% 29.98 in 10.0 mi WSW 3.5 mph - N/A   Clear
6:15 AM 35.6 °F 31.7 °F 30.2 °F 81% 29.99 in 10.0 mi WSW 4.6 mph - N/A   Clear
6:35 AM 35.6 °F 31.7 °F 32.0 °F 87% 29.99 in 10.0 mi WSW 4.6 mph - N/A   Clear
6:55 AM 33.8 °F 29.6 °F 30.2 °F 87% 30.00 in 10.0 mi West 4.6 mph - N/A   Clear
7:15 AM 33.8 °F 27.0 °F 28.4 °F 81% 30.00 in 10.0 mi West 8.1 mph - N/A   Clear
7:35 AM 33.8 °F 29.6 °F 30.2 °F 87% 30.00 in 10.0 mi WSW 4.6 mph - N/A   Clear
7:55 AM 33.8 °F 27.7 °F 33.8 °F 100% 30.01 in 10.0 mi SSW 6.9 mph - N/A   Partly Cloudy
8:15 AM 35.6 °F 29.2 °F 35.6 °F 100% 30.02 in 10.0 mi SW 8.1 mph - N/A   Mostly Cloudy
8:35 AM 37.4 °F 31.4 °F 35.6 °F 93% 30.03 in 10.0 mi WSW 8.1 mph - N/A   Partly Cloudy
8:55 AM 39.2 °F 33.0 °F 37.4 °F 93% 30.03 in 10.0 mi WSW 9.2 mph - N/A   Mostly Cloudy
9:15 AM 41.0 °F 35.8 °F 39.2 °F 93% 30.03 in 10.0 mi West 8.1 mph - N/A   Mostly Cloudy
9:35 AM 42.8 °F 38.6 °F 39.2 °F 87% 30.04 in 10.0 mi West 6.9 mph - N/A   Mostly Cloudy
10:35 AM 44.6 °F 40.7 °F 39.2 °F 81% 30.05 in 10.0 mi NW 6.9 mph - N/A   Mostly Cloudy
10:55 AM 46.4 °F 41.5 °F 39.2 °F 76% 30.05 in 10.0 mi NW 10.4 mph - N/A   Mostly Cloudy
11:15 AM 46.4 °F 42.4 °F 39.2 °F 76% 30.05 in 10.0 mi NW 8.1 mph - N/A   Mostly Cloudy
11:35 AM 46.4 °F 41.5 °F 39.2 °F 76% 30.05 in 10.0 mi NNW 10.4 mph - N/A   Mostly Cloudy
11:55 AM 46.4 °F 42.4 °F 37.4 °F 71% 30.05 in 10.0 mi NW 8.1 mph - N/A   Scattered Clouds
12:15 PM 46.4 °F 42.9 °F 37.4 °F 71% 30.05 in 10.0 mi North 6.9 mph - N/A   Scattered Clouds
12:35 PM 48.2 °F - 37.4 °F 66% 30.05 in 10.0 mi WNW 9.2 mph - N/A   Scattered Clouds
12:55 PM 48.2 °F - 35.6 °F 62% 30.05 in 10.0 mi NNW 8.1 mph - N/A   Scattered Clouds
1:15 PM 48.2 °F - 35.6 °F 62% 30.04 in 10.0 mi NW 9.2 mph - N/A   Scattered Clouds
1:35 PM 48.2 °F - 35.6 °F 62% 30.04 in 10.0 mi NNW 8.1 mph - N/A   Scattered Clouds
1:55 PM 48.2 °F - 35.6 °F 62% 30.04 in 10.0 mi North 9.2 mph - N/A   Partly Cloudy
2:15 PM 48.2 °F - 33.8 °F 58% 30.03 in 10.0 mi North 9.2 mph - N/A   Partly Cloudy
2:35 PM 50.0 °F - 33.8 °F 54% 30.03 in 10.0 mi NNW 8.1 mph - N/A   Clear
2:55 PM 48.2 °F - 32.0 °F 54% 30.03 in 10.0 mi NW 5.8 mph - N/A   Clear
3:15 PM 50.0 °F - 33.8 °F 54% 30.03 in 10.0 mi NNW 4.6 mph - N/A   Clear
3:35 PM 50.0 °F - 30.2 °F 47% 30.03 in 10.0 mi North 4.6 mph - N/A   Clear
3:55 PM 50.0 °F - 30.2 °F 47% 30.03 in 10.0 mi NW 5.8 mph - N/A   Clear
4:15 PM 50.0 °F - 32.0 °F 50% 30.02 in 10.0 mi WNW 5.8 mph - N/A   Clear
4:35 PM 50.0 °F - 30.2 °F 47% 30.02 in 10.0 mi NNW 5.8 mph - N/A   Clear
4:55 PM 50.0 °F - 32.0 °F 50% 30.02 in 10.0 mi NNW 3.5 mph - N/A   Clear
5:15 PM 48.2 °F - 30.2 °F 50% 30.02 in 10.0 mi Calm Calm - N/A   Clear
5:35 PM 48.2 °F - 30.2 °F 50% 30.02 in 10.0 mi NW 3.5 mph - N/A   Clear
5:55 PM 48.2 °F - 32.0 °F 54% 30.02 in 10.0 mi Calm Calm - N/A   Clear
6:15 PM 44.6 °F - 35.6 °F 71% 30.02 in 10.0 mi Calm Calm - N/A   Clear
6:35 PM 41.0 °F - 33.8 °F 76% 30.02 in 10.0 mi Calm Calm - N/A   Clear
6:55 PM 39.2 °F - 35.6 °F 87% 30.02 in 10.0 mi Calm Calm - N/A   Clear
7:15 PM 35.6 °F - 30.2 °F 81% 30.02 in 10.0 mi Calm Calm - N/A   Clear
7:35 PM 35.6 °F - 32.0 °F 87% 30.02 in 10.0 mi Calm Calm - N/A   Clear
7:55 PM 33.8 °F - 33.8 °F 100% 30.01 in 10.0 mi Calm Calm - N/A   Clear
8:15 PM 33.8 °F - 32.0 °F 93% 30.01 in 10.0 mi Calm Calm - N/A   Clear
8:55 PM 32.0 °F - 28.4 °F 87% 30.00 in 10.0 mi Calm Calm - N/A   Clear
9:15 PM 30.2 °F - 30.2 °F 100% 30.00 in 10.0 mi Calm Calm - N/A   Clear
9:35 PM 30.2 °F - 28.4 °F 93% 30.00 in 10.0 mi Calm Calm - N/A   Clear
9:55 PM 30.2 °F - 26.6 °F 86% 30.00 in 10.0 mi Calm Calm - N/A   Clear
10:15 PM 30.2 °F 26.7 °F 28.4 °F 93% 29.99 in 10.0 mi ENE 3.5 mph - N/A   Clear
10:35 PM 28.4 °F - 28.4 °F 100% 29.98 in 10.0 mi Calm Calm - N/A   Clear
11:15 PM 28.4 °F - 26.6 °F 93% 29.96 in 10.0 mi Calm Calm - N/A   Clear
11:35 PM 30.2 °F - 28.4 °F 93% 29.95 in 10.0 mi Calm Calm - N/A   Clear
11:55 PM 28.4 °F - 26.6 °F 93% 29.95 in 10.0 mi Calm Calm - N/A   Clear